Weather History for EGWU - September, 2013

Change the Weather History Date:

Monday, September 23, 2013

  Actual Average Record
Temperature  
Mean Temperature 58 °F -  
Max Temperature 64 °F 60 °F 77 °F (2000)
Min Temperature 51 °F 47 °F 42 °F (2014)
Degree Days  
Heating Degree Days 8    
Growing Degree Days 8 (Base 50)    
Moisture  
Dew Point 56 °F    
Average Humidity 87    
Maximum Humidity 100    
Minimum Humidity 71    
Precipitation  
Precipitation 0.01 in - - ()
Sea Level Pressure  
Sea Level Pressure 30.25 in    
Wind  
Wind Speed 2 mph ()    
Max Wind Speed 6 mph    
Max Gust Speed -    
Visibility 6.6 miles    
Events      
Averages and records for this station are not official NWS values.
T = Trace of Precipitation, MM = Missing Value Source: Averaged Metar Reports

Daily Weather History Graph

Daily Weather History Graph

Search for Another Location

Airport or City:

Trip Planner

Search our weather history database for the weather conditions in past years. The results will help you decide how hot, cold, wet, or windy it might be!

Date:

Astronomy

Sep. 23, 2013 Rise Set
Actual Time 6:49 AM BST 6:57 PM BST
Civil Twilight 6:16 AM BST 7:30 PM BST
Nautical Twilight 5:36 AM BST 8:10 PM BST
Astronomical Twilight 4:55 AM BST 8:50 PM BST
Moon 8:46 PM BST (9/23) 11:26 AM BST (9/23)
Length of Visible Light 13h 14m
Length of Day
12h 08m
Waning Gibbous, 83% of the Moon is Illuminated
Sep 23
Waning Gibbous
Sep 27
Last Quarter
Oct 5
New
Oct 12
First Quarter
Oct 19
Full

Hourly Weather History & Observations

Time (BST) Temp. Dew Point Humidity Pressure Visibility Wind Dir Wind Speed Gust Speed Precip Events Conditions
12:50 AM 53.6 °F 51.8 °F 94% 30.33 in 5.6 mi East 1.2 mph - N/A   Unknown
1:50 AM 51.8 °F 50.0 °F 94% 30.33 in 6.2 mi Calm Calm - N/A   Unknown
2:50 AM 51.8 °F 51.8 °F 100% 30.33 in 0.3 mi NW 1.2 mph - N/A   Mostly Cloudy
3:50 AM 54 °F 53 °F 93% 30.32 in 2 mi ESE 1.2 mph - -   Overcast
3:50 AM 53.6 °F 51.8 °F 94% 30.30 in - ESE 1.2 mph - N/A   Overcast
4:50 AM 55.4 °F 53.6 °F 94% 30.30 in 6.2 mi Calm Calm - N/A   Overcast
5:50 AM 55.4 °F 55.4 °F 100% 30.30 in 6.2 mi Calm Calm - N/A   Overcast
6:50 AM 57 °F 56 °F 96% 30.32 in 9 mi East 1.2 mph - -   Overcast
6:50 AM 57.2 °F 55.4 °F 94% 30.30 in 6.2 mi East 1.2 mph - N/A   Overcast
7:50 AM 57.2 °F 57.2 °F 100% 30.30 in 6.2 mi NNW 1.2 mph - N/A   Overcast
8:50 AM 59.0 °F 57.2 °F 94% 30.30 in 6.2 mi WSW 1.2 mph - N/A   Overcast
9:50 AM 62 °F 59 °F 87% 30.32 in 6 mi SW 1.2 mph - -   Overcast
9:50 AM 62.6 °F 59.0 °F 88% 30.30 in 6.2 mi SW 1.2 mph - N/A   Overcast
10:50 AM 62.6 °F 57.2 °F 82% 30.30 in 6.2 mi South 3.5 mph - N/A   Overcast
11:50 AM 62.6 °F 57.2 °F 82% 30.30 in 6.2 mi South 4.6 mph - N/A   Overcast
12:50 PM 64 °F 57 °F 71% 30.29 in 16 mi South 4.6 mph - -   Overcast
12:50 PM 64.4 °F 57.2 °F 77% 30.27 in 6.2 mi South 4.6 mph - N/A   Overcast
1:50 PM 64.4 °F 57.2 °F 77% 30.24 in 6.2 mi SSE 4.6 mph - N/A   Overcast
2:50 PM 64.4 °F 57.2 °F 77% 30.24 in 6.2 mi SSE 3.5 mph - N/A   Overcast
3:50 PM 64 °F 57 °F 71% 30.23 in 12 mi SE 3.5 mph - -   Mostly Cloudy
3:50 PM 64.4 °F 57.2 °F 77% 30.21 in 6.2 mi SE 3.5 mph - N/A   Mostly Cloudy
4:50 PM 64.4 °F 57.2 °F 77% 30.21 in 6.2 mi SSE 3.5 mph - N/A   Mostly Cloudy
5:50 PM 64.4 °F 57.2 °F 77% 30.18 in 6.2 mi SE 1.2 mph - N/A   Partly Cloudy
6:50 PM 61 °F 56 °F 78% 30.19 in 12 mi North 3.5 mph - -   Scattered Clouds
6:50 PM 60.8 °F 55.4 °F 82% 30.18 in 6.2 mi North 3.5 mph - N/A   Partly Cloudy
7:50 PM 59.0 °F 55.4 °F 88% 30.15 in 6.2 mi NE 5.8 mph - N/A   Partly Cloudy
8:50 PM 59.0 °F 55.4 °F 88% 30.15 in 6.2 mi ENE 5.8 mph - N/A   Partly Cloudy
9:50 PM 57 °F 55 °F 92% 30.16 in 6 mi East 5.8 mph - -  
9:50 PM 57.2 °F 55.4 °F 94% 30.15 in - East 5.8 mph - N/A   Clear
10:50 PM 57.2 °F 53.6 °F 88% 30.15 in 6.2 mi ENE 4.6 mph - N/A   Unknown
11:50 PM 53.6 °F 51.8 °F 94% 30.12 in 5.0 mi East 1.2 mph - N/A   Unknown